User: anonymous   Login
Location: Rancho Del Sol Observatory
(38.7214°N, 120.6350°W)
Time: 07:38:46
(UTC-08:00)
Language:

Cosmos 2221 Rocket - Orbit

View from above orbital plane
View from above orbital plane
View from above satellite
View from above satellite

Ground track
Ground track

The orbit data is extracted from the following two-line orbital elements,

1 22237U 92080B   18056.55544266  .00000095  00000-0  98861-5 0  9993
2 22237  82.5095 242.0182 0021230  96.6691 322.5552 14.78346690360877
Epoch (UTC): 25 February 2018 13:19:50
Eccentricity: 0.0021230
inclination: 82.5095°
perigee height: 619 km
apogee height: 649 km
right ascension of ascending node: 242.0182°
argument of perigee: 96.6691°
revolutions per day: 14.78346690
mean anomaly at epoch: 322.5552°
orbit number at epoch: 36087

The dashed part of the orbit path shows where the satellite is in the earth's shadow,  

DLR